contact:dominique.lefevre@mio.osupytheas.fr, maurice.libes@osupytheas.fr, didier.mallarino@osupytheas.fr
Project:EMSO http://www.emso-fr.org/EMSO-France
Depth: 2436.0 m
Title:EMSO Ligure Ouest : Data MII capteur MICROCAT
DateTime_Computer,Latitude,Longitude,Temperature,Conductivity,Pressure,DateTime_Instrument
DateTime_Computer,Latitude,Longitude,degC,S m-1,dbar,DateTime_Instrument
2019-06-11T00:00:30Z,42.805,6.029,13.2951,4.59952,2469.821,2019-6-11T02:00:46Z
2019-06-11T00:03:33Z,42.805,6.029,13.2947,4.59951,2469.867,2019-6-11T02:03:49Z
2019-06-11T00:06:36Z,42.805,6.029,13.2950,4.59952,2469.821,2019-6-11T02:06:52Z
2019-06-11T00:09:39Z,42.805,6.029,13.2950,4.59950,2469.844,2019-6-11T02:09:54Z
2019-06-11T00:12:42Z,42.805,6.029,13.2953,4.59953,2469.844,2019-6-11T02:12:57Z
2019-06-11T00:15:45Z,42.805,6.029,13.2952,4.59951,2469.844,2019-6-11T02:16:00Z
2019-06-11T00:18:48Z,42.805,6.029,13.2953,4.59952,2469.821,2019-6-11T02:19:03Z
2019-06-11T00:21:50Z,42.805,6.029,13.2951,4.59952,2469.844,2019-6-11T02:22:06Z
2019-06-11T00:24:53Z,42.805,6.029,13.2957,4.59953,2469.844,2019-6-11T02:25:09Z
2019-06-11T00:27:56Z,42.805,6.029,13.2952,4.59952,2469.853,2019-6-11T02:28:12Z
2019-06-11T00:30:59Z,42.805,6.029,13.2953,4.59951,2469.867,2019-6-11T02:31:15Z
2019-06-11T00:34:02Z,42.805,6.029,13.2955,4.59952,2469.806,2019-6-11T02:34:18Z
2019-06-11T00:37:05Z,42.805,6.029,13.2953,4.59951,2469.853,2019-6-11T02:37:21Z
2019-06-11T00:40:08Z,42.805,6.029,13.2950,4.59951,2469.867,2019-6-11T02:40:24Z
2019-06-11T00:43:11Z,42.805,6.029,13.2957,4.59951,2469.858,2019-6-11T02:43:27Z
2019-06-11T00:46:14Z,42.805,6.029,13.2952,4.59953,2469.876,2019-6-11T02:46:30Z
2019-06-11T00:49:17Z,42.805,6.029,13.2948,4.59953,2469.806,2019-6-11T02:49:33Z
2019-06-11T00:52:20Z,42.805,6.029,13.2949,4.59952,2469.867,2019-6-11T02:52:36Z
2019-06-11T00:55:23Z,42.805,6.029,13.2952,4.59953,2469.83,2019-6-11T02:55:39Z
2019-06-11T00:58:26Z,42.805,6.029,13.2954,4.59951,2469.83,2019-6-11T02:58:42Z
2019-06-11T01:01:29Z,42.805,6.029,13.2958,4.59952,2469.83,2019-6-11T03:01:45Z
2019-06-11T01:04:32Z,42.805,6.029,13.2953,4.59951,2469.844,2019-6-11T03:04:48Z
2019-06-11T01:07:35Z,42.805,6.029,13.2952,4.59951,2469.853,2019-6-11T03:07:50Z
2019-06-11T01:10:38Z,42.805,6.029,13.2955,4.59951,2469.853,2019-6-11T03:10:53Z
2019-06-11T01:13:41Z,42.805,6.029,13.2952,4.59951,2469.876,2019-6-11T03:13:56Z
2019-06-11T01:16:44Z,42.805,6.029,13.2955,4.59953,2469.867,2019-6-11T03:16:59Z
2019-06-11T01:19:47Z,42.805,6.029,13.2957,4.59951,2469.853,2019-6-11T03:20:02Z
2019-06-11T01:22:49Z,42.805,6.029,13.2953,4.59951,2469.853,2019-6-11T03:23:05Z
2019-06-11T01:25:52Z,42.805,6.029,13.2952,4.59952,2469.844,2019-6-11T03:26:08Z
2019-06-11T01:28:55Z,42.805,6.029,13.2953,4.59951,2469.853,2019-6-11T03:29:11Z
2019-06-11T01:31:58Z,42.805,6.029,13.2953,4.59952,2469.867,2019-6-11T03:32:14Z
2019-06-11T01:35:01Z,42.805,6.029,13.2951,4.59953,2469.876,2019-6-11T03:35:17Z
2019-06-11T01:38:04Z,42.805,6.029,13.2951,4.59951,2469.876,2019-6-11T03:38:20Z
2019-06-11T01:41:07Z,42.805,6.029,13.2954,4.59951,2469.867,2019-6-11T03:41:23Z
2019-06-11T01:44:10Z,42.805,6.029,13.2953,4.59951,2469.876,2019-6-11T03:44:26Z
2019-06-11T01:47:13Z,42.805,6.029,13.2955,4.59951,2469.844,2019-6-11T03:47:29Z
2019-06-11T01:50:16Z,42.805,6.029,13.2953,4.59955,2469.853,2019-6-11T03:50:32Z
2019-06-11T01:53:19Z,42.805,6.029,13.2952,4.59952,2469.853,2019-6-11T03:53:35Z
2019-06-11T01:56:22Z,42.805,6.029,13.2952,4.59952,2469.876,2019-6-11T03:56:38Z
2019-06-11T01:59:25Z,42.805,6.029,13.2953,4.59952,2469.853,2019-6-11T03:59:41Z
2019-06-11T02:02:28Z,42.805,6.029,13.2955,4.59952,2469.853,2019-6-11T04:02:44Z
2019-06-11T02:05:31Z,42.805,6.029,13.2953,4.59953,2469.876,2019-6-11T04:05:47Z
2019-06-11T02:08:34Z,42.805,6.029,13.2953,4.59952,2469.844,2019-6-11T04:08:49Z
2019-06-11T02:11:37Z,42.805,6.029,13.2953,4.59953,2469.844,2019-6-11T04:11:52Z
2019-06-11T02:14:40Z,42.805,6.029,13.2954,4.59952,2469.83,2019-6-11T04:14:55Z
2019-06-11T02:17:43Z,42.805,6.029,13.2954,4.59951,2469.83,2019-6-11T04:17:58Z
2019-06-11T02:20:45Z,42.805,6.029,13.2951,4.59952,2469.853,2019-6-11T04:21:01Z
2019-06-11T02:23:48Z,42.805,6.029,13.2952,4.59953,2469.853,2019-6-11T04:24:04Z
2019-06-11T02:26:51Z,42.805,6.029,13.2950,4.59953,2469.867,2019-6-11T04:27:07Z
2019-06-11T02:29:54Z,42.805,6.029,13.2951,4.59951,2469.867,2019-6-11T04:30:10Z
2019-06-11T02:32:57Z,42.805,6.029,13.2953,4.59952,2469.853,2019-6-11T04:33:13Z
2019-06-11T02:36:00Z,42.805,6.029,13.2952,4.59953,2469.853,2019-6-11T04:36:16Z
2019-06-11T02:39:03Z,42.805,6.029,13.2956,4.59953,2469.853,2019-6-11T04:39:19Z
2019-06-11T02:42:06Z,42.805,6.029,13.2954,4.59951,2469.89,2019-6-11T04:42:22Z
2019-06-11T02:45:09Z,42.805,6.029,13.2956,4.59953,2469.867,2019-6-11T04:45:25Z
2019-06-11T02:48:12Z,42.805,6.029,13.2952,4.59952,2469.844,2019-6-11T04:48:28Z
2019-06-11T02:51:15Z,42.805,6.029,13.2952,4.59954,2469.853,2019-6-11T04:51:31Z
2019-06-11T02:54:18Z,42.805,6.029,13.2953,4.59885,2469.83,2019-6-11T04:54:34Z
2019-06-11T02:57:21Z,42.805,6.029,13.2957,4.59951,2469.839,2019-6-11T04:57:37Z
2019-06-11T03:00:24Z,42.805,6.029,13.2952,4.59951,2469.844,2019-6-11T05:00:40Z
2019-06-11T03:03:27Z,42.805,6.029,13.2953,4.59951,2469.853,2019-6-11T05:03:43Z
2019-06-11T03:06:30Z,42.805,6.029,13.2952,4.59951,2469.853,2019-6-11T05:06:46Z
2019-06-11T03:09:33Z,42.805,6.029,13.2956,4.59954,2469.83,2019-6-11T05:09:48Z
2019-06-11T03:12:36Z,42.805,6.029,13.2954,4.59952,2469.821,2019-6-11T05:12:51Z
2019-06-11T03:15:39Z,42.805,6.029,13.2952,4.59952,2469.867,2019-6-11T05:15:54Z
2019-06-11T03:18:42Z,42.805,6.029,13.2949,4.59954,2469.876,2019-6-11T05:18:57Z
2019-06-11T03:21:44Z,42.805,6.029,13.2952,4.59952,2469.853,2019-6-11T05:22:00Z
2019-06-11T03:24:47Z,42.805,6.029,13.2954,4.59952,2469.844,2019-6-11T05:25:03Z
2019-06-11T03:27:50Z,42.805,6.029,13.2954,4.59951,2469.853,2019-6-11T05:28:06Z
2019-06-11T03:30:53Z,42.805,6.029,13.2954,4.59951,2469.83,2019-6-11T05:31:09Z
2019-06-11T03:33:56Z,42.805,6.029,13.2952,4.59954,2469.806,2019-6-11T05:34:12Z
2019-06-11T03:36:59Z,42.805,6.029,13.2957,4.59953,2469.844,2019-6-11T05:37:15Z
2019-06-11T03:40:02Z,42.805,6.029,13.2957,4.59951,2469.844,2019-6-11T05:40:18Z
2019-06-11T03:43:05Z,42.805,6.029,13.2950,4.59951,2469.83,2019-6-11T05:43:21Z
2019-06-11T03:46:08Z,42.805,6.029,13.2950,4.59952,2469.867,2019-6-11T05:46:24Z
2019-06-11T03:49:11Z,42.805,6.029,13.2953,4.59953,2469.853,2019-6-11T05:49:27Z
2019-06-11T03:52:14Z,42.805,6.029,13.2957,4.59953,2469.867,2019-6-11T05:52:30Z
2019-06-11T03:55:17Z,42.805,6.029,13.2956,4.59952,2469.844,2019-6-11T05:55:33Z
2019-06-11T03:58:20Z,42.805,6.029,13.2956,4.59951,2469.867,2019-6-11T05:58:36Z
2019-06-11T04:01:23Z,42.805,6.029,13.2952,4.59953,2469.83,2019-6-11T06:01:39Z
2019-06-11T04:04:26Z,42.805,6.029,13.2950,4.59954,2469.83,2019-6-11T06:04:42Z
2019-06-11T04:07:29Z,42.805,6.029,13.2953,4.59952,2469.853,2019-6-11T06:07:44Z
2019-06-11T04:10:32Z,42.805,6.029,13.2951,4.59952,2469.853,2019-6-11T06:10:47Z
2019-06-11T04:13:35Z,42.805,6.029,13.2952,4.59951,2469.83,2019-6-11T06:13:50Z
2019-06-11T04:16:38Z,42.805,6.029,13.2952,4.59952,2469.844,2019-6-11T06:16:53Z
2019-06-11T04:19:41Z,42.805,6.029,13.2953,4.59951,2469.844,2019-6-11T06:19:56Z
2019-06-11T04:22:43Z,42.805,6.029,13.2951,4.59951,2469.844,2019-6-11T06:22:59Z
2019-06-11T04:25:46Z,42.805,6.029,13.2952,4.59952,2469.806,2019-6-11T06:26:02Z
2019-06-11T04:28:49Z,42.805,6.029,13.2953,4.59952,2469.806,2019-6-11T06:29:05Z
2019-06-11T04:31:52Z,42.805,6.029,13.2953,4.59953,2469.83,2019-6-11T06:32:08Z
2019-06-11T04:34:55Z,42.805,6.029,13.2953,4.59953,2469.83,2019-6-11T06:35:11Z
2019-06-11T04:37:58Z,42.805,6.029,13.2952,4.59951,2469.83,2019-6-11T06:38:14Z
2019-06-11T04:41:01Z,42.805,6.029,13.2952,4.59951,2469.821,2019-6-11T06:41:17Z
2019-06-11T04:44:04Z,42.805,6.029,13.2956,4.59951,2469.797,2019-6-11T06:44:20Z
2019-06-11T04:47:07Z,42.805,6.029,13.2953,4.59951,2469.83,2019-6-11T06:47:23Z
2019-06-11T04:50:10Z,42.805,6.029,13.2956,4.59953,2469.821,2019-6-11T06:50:26Z
2019-06-11T04:53:13Z,42.805,6.029,13.2952,4.59952,2469.83,2019-6-11T06:53:29Z
2019-06-11T04:56:16Z,42.805,6.029,13.2955,4.59953,2469.797,2019-6-11T06:56:32Z
2019-06-11T04:59:19Z,42.805,6.029,13.2950,4.59951,2469.797,2019-6-11T06:59:35Z
2019-06-11T05:02:22Z,42.805,6.029,13.2948,4.59951,2469.783,2019-6-11T07:02:38Z
2019-06-11T05:05:25Z,42.805,6.029,13.2950,4.59951,2469.783,2019-6-11T07:05:41Z
2019-06-11T05:08:28Z,42.805,6.029,13.2953,4.59951,2469.769,2019-6-11T07:08:43Z
2019-06-11T05:11:31Z,42.805,6.029,13.2952,4.59951,2469.797,2019-6-11T07:11:46Z
2019-06-11T05:14:34Z,42.805,6.029,13.2953,4.59951,2469.797,2019-6-11T07:14:49Z
2019-06-11T05:17:37Z,42.805,6.029,13.2955,4.59951,2469.783,2019-6-11T07:17:52Z
2019-06-11T05:20:39Z,42.805,6.029,13.2952,4.59951,2469.797,2019-6-11T07:20:55Z
2019-06-11T05:23:42Z,42.805,6.029,13.2951,4.59951,2469.806,2019-6-11T07:23:58Z
2019-06-11T05:26:45Z,42.805,6.029,13.2955,4.59954,2469.806,2019-6-11T07:27:01Z
2019-06-11T05:29:48Z,42.805,6.029,13.2952,4.59951,2469.783,2019-6-11T07:30:04Z
2019-06-11T05:32:51Z,42.805,6.029,13.2955,4.59951,2469.76,2019-6-11T07:33:07Z
2019-06-11T05:35:54Z,42.805,6.029,13.2957,4.59951,2469.797,2019-6-11T07:36:10Z
2019-06-11T05:38:57Z,42.805,6.029,13.2953,4.59950,2469.773,2019-6-11T07:39:13Z
2019-06-11T05:42:00Z,42.805,6.029,13.2952,4.59951,2469.783,2019-6-11T07:42:16Z
2019-06-11T05:45:03Z,42.805,6.029,13.2952,4.59951,2469.76,2019-6-11T07:45:19Z
2019-06-11T05:48:06Z,42.805,6.029,13.2952,4.59954,2469.783,2019-6-11T07:48:22Z
2019-06-11T05:51:09Z,42.805,6.029,13.2948,4.59951,2469.773,2019-6-11T07:51:25Z
2019-06-11T05:54:12Z,42.805,6.029,13.2954,4.59951,2469.76,2019-6-11T07:54:28Z
2019-06-11T05:57:15Z,42.805,6.029,13.2952,4.59953,2469.773,2019-6-11T07:57:31Z
2019-06-11T06:00:18Z,42.805,6.029,13.2950,4.59951,2469.793,2019-6-11T08:00:34Z
2019-06-11T06:03:21Z,42.805,6.029,13.2950,4.59952,2469.737,2019-6-11T08:03:37Z
2019-06-11T06:06:24Z,42.805,6.029,13.2951,4.59951,2469.737,2019-6-11T08:06:40Z
2019-06-11T06:09:27Z,42.805,6.029,13.2950,4.59950,2469.713,2019-6-11T08:09:42Z
2019-06-11T06:12:30Z,42.805,6.029,13.2953,4.59952,2469.75,2019-6-11T08:12:45Z
2019-06-11T06:15:33Z,42.805,6.029,13.2953,4.59952,2469.773,2019-6-11T08:15:48Z
2019-06-11T06:18:36Z,42.805,6.029,13.2950,4.59951,2469.783,2019-6-11T08:18:51Z
2019-06-11T06:21:38Z,42.805,6.029,13.2951,4.59951,2469.773,2019-6-11T08:21:54Z
2019-06-11T06:24:41Z,42.805,6.029,13.2954,4.59951,2469.723,2019-6-11T08:24:57Z
2019-06-11T06:27:44Z,42.805,6.029,13.2951,4.59951,2469.75,2019-6-11T08:28:00Z
2019-06-11T06:30:47Z,42.805,6.029,13.2956,4.59951,2469.737,2019-6-11T08:31:03Z
2019-06-11T06:33:50Z,42.805,6.029,13.2952,4.59952,2469.773,2019-6-11T08:34:06Z
2019-06-11T06:36:53Z,42.805,6.029,13.2958,4.59951,2469.737,2019-6-11T08:37:09Z
2019-06-11T06:39:56Z,42.805,6.029,13.2954,4.59951,2469.75,2019-6-11T08:40:12Z
2019-06-11T06:42:59Z,42.805,6.029,13.2953,4.59951,2469.713,2019-6-11T08:43:15Z
2019-06-11T06:46:02Z,42.805,6.029,13.2951,4.59951,2469.75,2019-6-11T08:46:18Z
2019-06-11T06:49:05Z,42.805,6.029,13.2951,4.59951,2469.76,2019-6-11T08:49:21Z
2019-06-11T06:52:08Z,42.805,6.029,13.2952,4.59952,2469.727,2019-6-11T08:52:24Z
2019-06-11T06:55:11Z,42.805,6.029,13.2952,4.59951,2469.75,2019-6-11T08:55:27Z
2019-06-11T06:58:14Z,42.805,6.029,13.2952,4.59952,2469.727,2019-6-11T08:58:30Z
2019-06-11T07:01:17Z,42.805,6.029,13.2952,4.59950,2469.704,2019-6-11T09:01:33Z
2019-06-11T07:04:20Z,42.805,6.029,13.2956,4.59951,2469.69,2019-6-11T09:04:36Z
2019-06-11T07:07:23Z,42.805,6.029,13.2950,4.59951,2469.727,2019-6-11T09:07:38Z
2019-06-11T07:10:26Z,42.805,6.029,13.2953,4.59951,2469.713,2019-6-11T09:10:41Z
2019-06-11T07:13:29Z,42.805,6.029,13.2950,4.59951,2469.69,2019-6-11T09:13:44Z
2019-06-11T07:16:31Z,42.805,6.029,13.2957,4.59951,2469.69,2019-6-11T09:16:47Z
2019-06-11T07:19:34Z,42.805,6.029,13.2953,4.59951,2469.69,2019-6-11T09:19:50Z
2019-06-11T07:22:37Z,42.805,6.029,13.2952,4.59950,2469.727,2019-6-11T09:22:53Z
2019-06-11T07:25:40Z,42.805,6.029,13.2952,4.59951,2469.667,2019-6-11T09:25:56Z
2019-06-11T07:28:43Z,42.805,6.029,13.2951,4.59951,2469.713,2019-6-11T09:28:59Z
2019-06-11T07:31:46Z,42.805,6.029,13.2953,4.59951,2469.69,2019-6-11T09:32:02Z
2019-06-11T07:34:49Z,42.805,6.029,13.2956,4.59952,2469.68,2019-6-11T09:35:05Z
2019-06-11T07:37:52Z,42.805,6.029,13.2953,4.59950,2469.713,2019-6-11T09:38:08Z
2019-06-11T07:40:55Z,42.805,6.029,13.2950,4.59951,2469.667,2019-6-11T09:41:11Z
2019-06-11T07:43:58Z,42.805,6.029,13.2954,4.59951,2469.704,2019-6-11T09:44:14Z
2019-06-11T07:47:01Z,42.805,6.029,13.2951,4.59951,2469.713,2019-6-11T09:47:17Z
2019-06-11T07:50:04Z,42.805,6.029,13.2955,4.59951,2469.657,2019-6-11T09:50:20Z
2019-06-11T07:53:07Z,42.805,6.029,13.2948,4.59950,2469.667,2019-6-11T09:53:23Z
2019-06-11T07:56:10Z,42.805,6.029,13.2957,4.59952,2469.667,2019-6-11T09:56:26Z
2019-06-11T07:59:13Z,42.805,6.029,13.2952,4.59952,2469.704,2019-6-11T09:59:29Z
2019-06-11T08:02:16Z,42.805,6.029,13.2954,4.59951,2469.704,2019-6-11T10:02:32Z
2019-06-11T08:05:19Z,42.805,6.029,13.2952,4.59950,2469.667,2019-6-11T10:05:34Z
2019-06-11T08:08:22Z,42.805,6.029,13.2953,4.59950,2469.69,2019-6-11T10:08:37Z
2019-06-11T08:11:25Z,42.805,6.029,13.2952,4.59951,2469.69,2019-6-11T10:11:40Z
2019-06-11T08:14:28Z,42.805,6.029,13.2953,4.59952,2469.643,2019-6-11T10:14:43Z
2019-06-11T08:17:30Z,42.805,6.029,13.2950,4.59951,2469.69,2019-6-11T10:17:46Z
2019-06-11T08:20:33Z,42.805,6.029,13.2949,4.59950,2469.667,2019-6-11T10:20:49Z
2019-06-11T08:23:36Z,42.805,6.029,13.2950,4.59951,2469.657,2019-6-11T10:23:52Z
2019-06-11T08:26:39Z,42.805,6.029,13.2953,4.59951,2469.68,2019-6-11T10:26:55Z
2019-06-11T08:29:42Z,42.805,6.029,13.2952,4.59951,2469.68,2019-6-11T10:29:58Z
2019-06-11T08:32:45Z,42.805,6.029,13.2952,4.59951,2469.69,2019-6-11T10:33:01Z
2019-06-11T08:35:48Z,42.805,6.029,13.2952,4.59950,2469.68,2019-6-11T10:36:04Z
2019-06-11T08:38:51Z,42.805,6.029,13.2953,4.59951,2469.69,2019-6-11T10:39:07Z
2019-06-11T08:41:54Z,42.805,6.029,13.2952,4.59951,2469.704,2019-6-11T10:42:10Z
2019-06-11T08:44:57Z,42.805,6.029,13.2953,4.59949,2469.643,2019-6-11T10:45:13Z
2019-06-11T08:48:00Z,42.805,6.029,13.2951,4.59951,2469.667,2019-6-11T10:48:16Z
2019-06-11T08:51:03Z,42.805,6.029,13.2953,4.59951,2469.704,2019-6-11T10:51:19Z
2019-06-11T08:54:06Z,42.805,6.029,13.2952,4.59951,2469.667,2019-6-11T10:54:22Z
2019-06-11T08:57:09Z,42.805,6.029,13.2955,4.59951,2469.657,2019-6-11T10:57:25Z
2019-06-11T09:00:12Z,42.805,6.029,13.2953,4.59951,2469.667,2019-6-11T11:00:28Z
2019-06-11T09:03:15Z,42.805,6.029,13.2953,4.59951,2469.643,2019-6-11T11:03:31Z
2019-06-11T09:06:18Z,42.805,6.029,13.2957,4.59951,2469.657,2019-6-11T11:06:34Z
2019-06-11T09:09:21Z,42.805,6.029,13.2955,4.59950,2469.68,2019-6-11T11:09:37Z
2019-06-11T09:12:24Z,42.805,6.029,13.2952,4.59950,2469.667,2019-6-11T11:12:39Z
2019-06-11T09:15:27Z,42.805,6.029,13.2952,4.59950,2469.643,2019-6-11T11:15:42Z
2019-06-11T09:18:30Z,42.805,6.029,13.2948,4.59951,2469.657,2019-6-11T11:18:45Z
2019-06-11T09:21:32Z,42.805,6.029,13.2952,4.59951,2469.68,2019-6-11T11:21:48Z
2019-06-11T09:24:35Z,42.805,6.029,13.2948,4.59951,2469.667,2019-6-11T11:24:51Z
2019-06-11T09:27:38Z,42.805,6.029,13.2953,4.59950,2469.68,2019-6-11T11:27:54Z
2019-06-11T09:30:41Z,42.805,6.029,13.2955,4.59951,2469.667,2019-6-11T11:30:57Z
2019-06-11T09:33:44Z,42.805,6.029,13.2952,4.59950,2469.704,2019-6-11T11:34:00Z
2019-06-11T09:36:47Z,42.805,6.029,13.2950,4.59951,2469.69,2019-6-11T11:37:03Z
2019-06-11T09:39:50Z,42.805,6.029,13.2948,4.59950,2469.704,2019-6-11T11:40:06Z
2019-06-11T09:42:53Z,42.805,6.029,13.2950,4.59951,2469.727,2019-6-11T11:43:09Z
2019-06-11T09:45:56Z,42.805,6.029,13.2953,4.59951,2469.68,2019-6-11T11:46:12Z
2019-06-11T09:48:59Z,42.805,6.029,13.2956,4.59951,2469.704,2019-6-11T11:49:15Z
2019-06-11T09:52:02Z,42.805,6.029,13.2954,4.59950,2469.704,2019-6-11T11:52:18Z
2019-06-11T09:55:05Z,42.805,6.029,13.2953,4.59950,2469.643,2019-6-11T11:55:21Z
2019-06-11T09:58:08Z,42.805,6.029,13.2955,4.59950,2469.704,2019-6-11T11:58:24Z
2019-06-11T10:01:11Z,42.805,6.029,13.2952,4.59951,2469.69,2019-6-11T12:01:27Z
2019-06-11T10:04:14Z,42.805,6.029,13.2951,4.59951,2469.704,2019-6-11T12:04:30Z
2019-06-11T10:07:17Z,42.805,6.029,13.2952,4.59951,2469.704,2019-6-11T12:07:33Z
2019-06-11T10:10:20Z,42.805,6.029,13.2953,4.59951,2469.704,2019-6-11T12:10:36Z
2019-06-11T10:13:23Z,42.805,6.029,13.2953,4.59950,2469.69,2019-6-11T12:13:38Z
2019-06-11T10:16:26Z,42.805,6.029,13.2953,4.59951,2469.667,2019-6-11T12:16:41Z
2019-06-11T10:19:29Z,42.805,6.029,13.2948,4.59951,2469.667,2019-6-11T12:19:44Z
2019-06-11T10:22:32Z,42.805,6.029,13.2952,4.59950,2469.69,2019-6-11T12:22:47Z
2019-06-11T10:25:35Z,42.805,6.029,13.2953,4.59950,2469.657,2019-6-11T12:25:50Z
2019-06-11T10:28:37Z,42.805,6.029,13.2952,4.59952,2469.727,2019-6-11T12:28:53Z
2019-06-11T10:31:40Z,42.805,6.029,13.2954,4.59951,2469.704,2019-6-11T12:31:56Z
2019-06-11T10:34:43Z,42.805,6.029,13.2953,4.59950,2469.69,2019-6-11T12:34:59Z
2019-06-11T10:37:46Z,42.805,6.029,13.2955,4.59951,2469.667,2019-6-11T12:38:02Z
2019-06-11T10:40:49Z,42.805,6.029,13.2953,4.59951,2469.667,2019-6-11T12:41:05Z
2019-06-11T10:43:52Z,42.805,6.029,13.2953,4.59951,2469.68,2019-6-11T12:44:08Z
2019-06-11T10:46:55Z,42.805,6.029,13.2956,4.59950,2469.667,2019-6-11T12:47:11Z
2019-06-11T10:49:58Z,42.805,6.029,13.2953,4.59951,2469.667,2019-6-11T12:50:14Z
2019-06-11T10:53:01Z,42.805,6.029,13.2953,4.59951,2469.704,2019-6-11T12:53:17Z
2019-06-11T10:56:04Z,42.805,6.029,13.2955,4.59951,2469.727,2019-6-11T12:56:20Z
2019-06-11T10:59:07Z,42.805,6.029,13.2952,4.59951,2469.704,2019-6-11T12:59:23Z
2019-06-11T11:02:10Z,42.805,6.029,13.2957,4.59951,2469.704,2019-6-11T13:02:26Z
2019-06-11T11:05:13Z,42.805,6.029,13.2952,4.59951,2469.713,2019-6-11T13:05:29Z
2019-06-11T11:08:16Z,42.805,6.029,13.2955,4.59951,2469.69,2019-6-11T13:08:32Z
2019-06-11T11:11:19Z,42.805,6.029,13.2949,4.59951,2469.713,2019-6-11T13:11:35Z
2019-06-11T11:14:22Z,42.805,6.029,13.2954,4.59951,2469.69,2019-6-11T13:14:38Z
2019-06-11T11:17:25Z,42.805,6.029,13.2949,4.59950,2469.69,2019-6-11T13:17:41Z
2019-06-11T11:20:28Z,42.805,6.029,13.2956,4.59952,2469.737,2019-6-11T13:20:43Z
2019-06-11T11:23:31Z,42.805,6.029,13.2953,4.59950,2469.69,2019-6-11T13:23:46Z
2019-06-11T11:26:34Z,42.805,6.029,13.2953,4.59951,2469.713,2019-6-11T13:26:49Z
2019-06-11T11:29:37Z,42.805,6.029,13.2955,4.59951,2469.737,2019-6-11T13:29:52Z
2019-06-11T11:32:40Z,42.805,6.029,13.2955,4.59953,2469.727,2019-6-11T13:32:55Z
2019-06-11T11:35:42Z,42.805,6.029,13.2952,4.59953,2469.713,2019-6-11T13:35:58Z
2019-06-11T11:38:45Z,42.805,6.029,13.2954,4.59952,2469.713,2019-6-11T13:39:01Z
2019-06-11T11:41:48Z,42.805,6.029,13.2952,4.59950,2469.713,2019-6-11T13:42:04Z
2019-06-11T11:44:51Z,42.805,6.029,13.2954,4.59951,2469.737,2019-6-11T13:45:07Z
2019-06-11T11:47:54Z,42.805,6.029,13.2948,4.59951,2469.75,2019-6-11T13:48:10Z
2019-06-11T11:50:57Z,42.805,6.029,13.2955,4.59951,2469.704,2019-6-11T13:51:13Z
2019-06-11T11:54:00Z,42.805,6.029,13.2952,4.59951,2469.75,2019-6-11T13:54:16Z
2019-06-11T11:57:03Z,42.805,6.029,13.2954,4.59951,2469.704,2019-6-11T13:57:19Z
2019-06-11T12:00:06Z,42.805,6.029,13.2953,4.59951,2469.69,2019-6-11T14:00:22Z
2019-06-11T12:03:09Z,42.805,6.029,13.2954,4.59951,2469.713,2019-6-11T14:03:25Z
2019-06-11T12:06:12Z,42.805,6.029,13.2953,4.59951,2469.727,2019-6-11T14:06:28Z
2019-06-11T12:09:15Z,42.805,6.029,13.2957,4.59952,2469.723,2019-6-11T14:09:31Z
2019-06-11T12:12:18Z,42.805,6.029,13.2951,4.59951,2469.713,2019-6-11T14:12:34Z
2019-06-11T12:15:21Z,42.805,6.029,13.2953,4.59951,2469.713,2019-6-11T14:15:37Z
2019-06-11T12:18:24Z,42.805,6.029,13.2957,4.59951,2469.727,2019-6-11T14:18:40Z
2019-06-11T12:21:27Z,42.805,6.029,13.2952,4.59952,2469.737,2019-6-11T14:21:43Z
2019-06-11T12:24:30Z,42.805,6.029,13.2949,4.59952,2469.737,2019-6-11T14:24:46Z
2019-06-11T12:27:33Z,42.805,6.029,13.2954,4.59951,2469.75,2019-6-11T14:27:48Z
2019-06-11T12:30:36Z,42.805,6.029,13.2952,4.59951,2469.737,2019-6-11T14:30:51Z
2019-06-11T12:33:39Z,42.805,6.029,13.2953,4.59952,2469.713,2019-6-11T14:33:54Z
2019-06-11T12:36:42Z,42.805,6.029,13.2949,4.59951,2469.737,2019-6-11T14:36:57Z
2019-06-11T12:39:44Z,42.805,6.029,13.2952,4.59952,2469.76,2019-6-11T14:40:00Z
2019-06-11T12:42:47Z,42.805,6.029,13.2952,4.59951,2469.737,2019-6-11T14:43:03Z
2019-06-11T12:45:50Z,42.805,6.029,13.2952,4.59951,2469.737,2019-6-11T14:46:06Z
2019-06-11T12:48:53Z,42.805,6.029,13.2949,4.59951,2469.76,2019-6-11T14:49:09Z
2019-06-11T12:51:56Z,42.805,6.029,13.2954,4.59951,2469.737,2019-6-11T14:52:12Z
2019-06-11T12:54:59Z,42.805,6.029,13.2953,4.59951,2469.75,2019-6-11T14:55:15Z
2019-06-11T12:58:02Z,42.805,6.029,13.2949,4.59951,2469.713,2019-6-11T14:58:18Z
2019-06-11T13:01:05Z,42.805,6.029,13.2954,4.59951,2469.75,2019-6-11T15:01:21Z
2019-06-11T13:04:08Z,42.805,6.029,13.2954,4.59951,2469.76,2019-6-11T15:04:24Z
2019-06-11T13:07:11Z,42.805,6.029,13.2954,4.59951,2469.75,2019-6-11T15:07:27Z
2019-06-11T13:10:14Z,42.805,6.029,13.2953,4.59951,2469.737,2019-6-11T15:10:30Z
2019-06-11T13:13:17Z,42.805,6.029,13.2952,4.59952,2469.797,2019-6-11T15:13:33Z
2019-06-11T13:16:20Z,42.805,6.029,13.2953,4.59952,2469.75,2019-6-11T15:16:36Z
2019-06-11T13:19:23Z,42.805,6.029,13.2957,4.59951,2469.773,2019-6-11T15:19:39Z
2019-06-11T13:22:26Z,42.805,6.029,13.2953,4.59951,2469.773,2019-6-11T15:22:42Z
2019-06-11T13:25:29Z,42.805,6.029,13.2952,4.59951,2469.773,2019-6-11T15:25:45Z
2019-06-11T13:28:32Z,42.805,6.029,13.2952,4.59951,2469.76,2019-6-11T15:28:48Z
2019-06-11T13:31:35Z,42.805,6.029,13.2954,4.59952,2469.773,2019-6-11T15:31:51Z
2019-06-11T13:34:38Z,42.805,6.029,13.2953,4.59954,2469.773,2019-6-11T15:34:53Z
2019-06-11T13:37:41Z,42.805,6.029,13.2953,4.59954,2469.76,2019-6-11T15:37:56Z
2019-06-11T13:40:44Z,42.805,6.029,13.2952,4.59951,2469.76,2019-6-11T15:40:59Z
2019-06-11T13:43:46Z,42.805,6.029,13.2952,4.59952,2469.75,2019-6-11T15:44:02Z
2019-06-11T13:46:49Z,42.805,6.029,13.2953,4.59951,2469.783,2019-6-11T15:47:05Z
2019-06-11T13:49:52Z,42.805,6.029,13.2955,4.59951,2469.797,2019-6-11T15:50:08Z
2019-06-11T13:52:55Z,42.805,6.029,13.2951,4.59951,2469.797,2019-6-11T15:53:11Z
2019-06-11T13:55:58Z,42.805,6.029,13.2952,4.59951,2469.737,2019-6-11T15:56:14Z
2019-06-11T13:59:01Z,42.805,6.029,13.2948,4.59952,2469.76,2019-6-11T15:59:17Z
2019-06-11T14:02:04Z,42.805,6.029,13.2953,4.59953,2469.797,2019-6-11T16:02:20Z
2019-06-11T14:05:07Z,42.805,6.029,13.2953,4.59951,2469.737,2019-6-11T16:05:23Z
2019-06-11T14:08:10Z,42.805,6.029,13.2952,4.59950,2469.75,2019-6-11T16:08:26Z
2019-06-11T14:11:13Z,42.805,6.029,13.2955,4.59952,2469.76,2019-6-11T16:11:29Z
2019-06-11T14:14:16Z,42.805,6.029,13.2953,4.59951,2469.773,2019-6-11T16:14:32Z
2019-06-11T14:17:19Z,42.805,6.029,13.2957,4.59952,2469.737,2019-6-11T16:17:35Z
2019-06-11T14:20:22Z,42.805,6.029,13.2953,4.59951,2469.76,2019-6-11T16:20:38Z
2019-06-11T14:23:25Z,42.805,6.029,13.2953,4.59952,2469.746,2019-6-11T16:23:41Z
2019-06-11T14:26:28Z,42.805,6.029,13.2950,4.59951,2469.797,2019-6-11T16:26:44Z
2019-06-11T14:29:31Z,42.805,6.029,13.2952,4.59951,2469.783,2019-6-11T16:29:47Z
2019-06-11T14:32:34Z,42.805,6.029,13.2953,4.59951,2469.783,2019-6-11T16:32:50Z
2019-06-11T14:35:37Z,42.805,6.029,13.2952,4.59951,2469.797,2019-6-11T16:35:53Z
2019-06-11T14:38:40Z,42.805,6.029,13.2951,4.59954,2469.783,2019-6-11T16:38:55Z
2019-06-11T14:41:43Z,42.805,6.029,13.2949,4.59951,2469.783,2019-6-11T16:41:58Z
2019-06-11T14:44:46Z,42.805,6.029,13.2953,4.59951,2469.797,2019-6-11T16:45:01Z
2019-06-11T14:47:49Z,42.805,6.029,13.2953,4.59953,2469.76,2019-6-11T16:48:04Z
2019-06-11T14:50:52Z,42.805,6.029,13.2954,4.59951,2469.773,2019-6-11T16:51:07Z
2019-06-11T14:53:54Z,42.805,6.029,13.2952,4.59951,2469.76,2019-6-11T16:54:10Z
2019-06-11T14:56:57Z,42.805,6.029,13.2952,4.59952,2469.797,2019-6-11T16:57:13Z
2019-06-11T15:00:00Z,42.805,6.029,13.2953,4.59957,2469.76,2019-6-11T17:00:16Z
2019-06-11T15:03:03Z,42.805,6.029,13.2955,4.59953,2469.76,2019-6-11T17:03:19Z
2019-06-11T15:06:06Z,42.805,6.029,13.2952,4.59952,2469.797,2019-6-11T17:06:22Z
2019-06-11T15:09:09Z,42.805,6.029,13.2952,4.59953,2469.844,2019-6-11T17:09:25Z